Location: Home
(42.5358°N, 72.7383°W)
Time: 21:12:28
(UTC-05:00)

Vanguard 2 Rocket - Pass Details

Date: 03 December 2021
Orbit: 554 x 3325 km, 32.9° (Epoch: 21 January)

Event Time Altitude Azimuth Distance (km) Brightness Sun altitude
Rises 01:25:17 0° 269° (W) 5,911 - -60.2°
Reaches altitude 10° 01:31:03 10° 251° (WSW) 5,384 - -59.3°
Maximum altitude 01:39:59 17° 218° (SW) 5,347 - -57.9°
Drops below altitude 10° 01:50:18 10° 186° (S) 6,246 - -56.2°
Exits shadow 01:53:56 - 178° (S) 6,700 11.1 -55.6°
Sets 01:58:12 0° 169° (S) 7,277 11.4 -54.9°
